CYFBCYRT

Guest
Details From CYFB - Iqaluit
To CYRT - RANKIN INLET
Flight Number -
Tags generated
Created
Modified
Stats Distance 648 nm / 1,199 km
Max Altitude 34,000 ft / 10,363 m
Waypoints 6
Social Downloads 0
Likes 0
Share VATSIM

Download

Looking for another format? Having issues loading an existing format? Contact us
Advertisement - Login to hide

Notes

Basic altitude profile: - Ascent Rate: 2500ft/min - Ascent Speed: 250kts - Cruise Altitude: 35000ft - Cruise Speed: 420kts - Descent Rate: 1500ft/min - Descent Speed: 250kts

Route

CYFB YFB J540 YZS NCAW N6250 CYRT

ID Type Via Altitude Latitude Longitude Leg Dist Tot Dist Heading (true) Name
O CYFB APT - 0 ft / 0 m 63.75657˚ -68.55606˚ - 0 nm - Iqaluit
YFB VOR - 800 ft / 244 m 63.74167˚ -68.47333˚ 2 nm 2 nm 112° / 112° FROBAY VOR
YTE NDB J540 (AWY-HI) 34,000 ft / 10,363 m 64.22861˚ -76.52806˚ 214 nm 216 nm 281° / 274° CAPE DORSET NDB
YZS NDB J540 (AWY-HI) 34,000 ft / 10,363 m 64.14850˚ -83.30475˚ 177 nm 393 nm 271° / 265° CORAL HARBOUR NDB
N6250 FIX NCAW (AWY-HI) 28,000 ft / 8,534 m 62.83333˚ -90.00000˚ 195 nm 589 nm 249° / 243° -
O CYRT APT - 0 ft / 0 m 62.81139˚ -92.11584˚ 58 nm 647 nm 270° / 268° RANKIN INLET

Altitude Profile

Advertisement - Login to hide

Weather


0- 5 10 15 20 25 30 35+ Temperature / ° C

Clouds and Precipitation
Forecast for 2018-05-20 12:00 UTC. Updated an hour ago

Ground ~20,000 ft ~40,000 ft Winds

CYFB

Details ICAO CYFB (YFB)
Name Iqaluit
Region Canada
Timezone America/Iqaluit (UTC-4.0)
Stats Elevation 110 ft / 34 m (AMSL)
Location 63.756565° -68.556058°
Runways 1
Magnetic Variation 27.376° W

METAR

CYFB 201000Z VRB02KT 20SM -SN OVC018 M07/M10 A2973 RMK SC8 -SN INTMT SLP074

Decode

TAF

TAF TAF CYFB 200544Z 2006/2106 34007KT P6SM OVC025 TEMPO 2006/2106 P6SM -SN OVC020 RMK NXT FCST BY 201200Z

Decode

Departure Runways

ID Width Length Bearing (true) Bearing (mag) Surface Threshold Offset Overrun Length
17 200 ft / 61 m 8,605 ft / 2,623 m 135.58° 162.96° Asphalt 0 ft / 0 m 210 ft / 64 m
35 200 ft / 61 m 8,605 ft / 2,623 m 315.62° 343.00° Asphalt 0 ft / 0 m 243 ft / 74 m

CYRT

Details ICAO CYRT (YRT)
Name RANKIN INLET
Region Canada
Timezone America/Rankin_Inlet (UTC-5.0)
Stats Elevation 94 ft / 29 m (AMSL)
Location 62.811388° -92.115836°
Runways 1
Magnetic Variation 6.801° W

METAR

CYRT 201000Z 33019KT 15SM DRSN FEW025 M13/M15 A2993 RMK SC2 SLP139

Decode

TAF

TAF CYRT 200544Z 2006/2018 34020G30KT P6SM SCT020 TEMPO 2006/2009 4SM -SN BLSN BKN020 FM200900 34018G28KT P6SM -SN OVC015 TEMPO 2009/2018 P6SM NSW SCT015 OVC040 RMK NXT FCST BY 201200Z

Decode

Destination Runways

ID Width Length Bearing (true) Bearing (mag) Surface Threshold Offset Overrun Length
13T 150 ft / 46 m 5,982 ft / 1,823 m 129.03° 135.83° Asphalt 0 ft / 0 m 0 ft / 0 m
31T 150 ft / 46 m 5,982 ft / 1,823 m 309.05° 315.85° Asphalt 0 ft / 0 m 0 ft / 0 m

Popular Alternatives